This demonstration page uses our WeatherBlox Daily Observations layout. Learn more.

Left ArrowRight Arrow

34.02893, -84.19858

Hourly Observations for March 9, 2016

Temp ( °F °C ) Dew Point ( °F °C ) Humidity (%) Winds ( mph kmh ) Pressure ( in mb ) Visibility ( mi km ) Precip ( " mm )
12:53 am 00:53 Clear 56 13.3 50 10 81 81 Calm 30.16 1021 10 16 0.00 0.00
1:53 am 01:53 Clear 59 15 51 10.6 75 75 SSE 8 13 30.16 1021 10 16 0.00 0.00
2:53 am 02:53 Clear 57 13.9 52 11.1 83 83 SE 5 7 30.15 1021 10 16 0.00 0.00
3:53 am 03:53 Clear 56 13.3 52 11.1 87 87 SE 3 6 30.16 1021 10 16 0.00 0.00
4:53 am 04:53 Clear 55 12.8 52 11.1 90 90 Calm 30.17 1022 10 16 0.00 0.00
5:53 am 05:53 Partly Cloudy 54 12.2 52 11.1 93 93 ESE 3 6 30.18 1022 10 16 0.00 0.00
6:53 am 06:53 Cloudy 54 12.2 53 11.7 97 97 Calm 30.21 1023 10 16 0.00 0.00
7:53 am 07:53 Cloudy 57 13.9 54 12.2 90 90 Calm 30.22 1023 10 16 0.00 0.00
8:53 am 08:53 Cloudy 60 15.6 55 12.8 84 84 SSE 7 11 30.23 1024 10 16 0.00 0.00
9:53 am 09:53 Cloudy 63 17.2 55 12.8 76 76 VRB 7 11 30.24 1024 10 16 0.00 0.00
10:53 am 10:53 Cloudy 66 18.9 55 12.8 68 68 SSE 9 15 30.24 1024 10 16 0.00 0.00
11:53 am 11:53 Partly Cloudy 70 21.1 55 12.8 59 59 S 15 24 30.21 1023 10 16 0.00 0.00
12:53 pm 12:53 Partly Cloudy 73 22.8 54 12.2 51 51 SSE 10 17 30.17 1022 10 16 0.00 0.00
1:53 pm 13:53 Mostly Sunny 74 23.3 54 12.2 50 50 S 14 22 30.14 1021 10 16 0.00 0.00
2:53 pm 14:53 Sunny 76 24.4 54 12.2 47 47 S 12 19 30.11 1020 10 16 0.00 0.00
3:53 pm 15:53 Sunny 75 23.9 53 11.7 46 46 SSE 9 15 30.10 1019 10 16 0.00 0.00
4:53 pm 16:53 Sunny 75 23.9 53 11.7 46 46 S 10 17 30.11 1020 10 16 0.00 0.00
5:53 pm 17:53 Sunny 72 22.2 53 11.7 52 52 SSE 7 11 30.12 1020 10 16 0.00 0.00
6:53 pm 18:53 Clear 70 21.1 52 11.1 53 53 SE 7 11 30.14 1021 10 16 0.00 0.00
7:53 pm 19:53 Clear 68 20 53 11.7 59 59 SE 6 9 30.14 1021 10 16 0.00 0.00
8:53 pm 20:53 Clear 67 19.4 53 11.7 61 61 SE 6 9 30.14 1021 10 16 0.00 0.00
9:53 pm 21:53 Clear 66 18.9 53 11.7 63 63 SE 6 9 30.15 1021 10 16 0.00 0.00
10:53 pm 22:53 Clear 64 17.8 54 12.2 70 70 SE 5 7 30.16 1021 10 16 0.00 0.00
11:53 pm 23:53 Mostly Cloudy 64 17.8 54 12.2 70 70 SE 5 7 30.16 1021 10 16 0.00 0.00

Powered by AerisWeather